Weather in Charkov

Russia / Republic of Khakassia     53°42′09″N   90°22′56″E
temp.,
°C
wind,
m/s
gust,
m/s
humid.,
%
clouds,
%
prec.,
mm/h
press.,
hPa
HPBL,
m
9 december, thu
thu901:00−15wnw228058 0.0 103641
04:00−15w22805 0.0 103643
07:00−16w2379100 0.0 103963
10:00−15wsw3464100 0.0 1041152
13:00−13wsw345451 0.0 1042328
16:00−13w3455100 0.0 1043344
19:00−14wsw3559100 0.0 1045298
22:00−15w356397 0.0 1046214
10 december, fri
fri1001:00−15w3562100 0.0 1045214
04:00−15w3464100 0.0 1045198
07:00−15w3464100 0.0 1045182
10:00−15wsw3462100 0.0 1044170
13:00−13wsw3560100 0.0 1043305
16:00−11wsw2553100 0.0 1042386
19:00−12wsw2461100 0.0 1044225
22:00−14w346792 0.0 1045136
11 december, sat
sat1101:00−14wsw236797 0.0 104496
04:00−14w237161 0.0 104459
07:00−14wsw227290 0.0 104433
10:00−12wsw1170100 0.0 104226
13:00−10se1164100 0.0 1040128
16:00−10e1167100 0.0 103879
19:00−11ene1174100 0.0 103510
22:00−11nw0181100 0.0 103210
12 december, sun
sun1201:00−11nne1181100 0.0 102910
04:00−10e1179100 0.0 102710
07:00−10wnw0181100 0.0 102510
10:00−9ssw1173100 0.0 102313
13:00−6s1258100 0.0 102048
16:00−5ssw2354100 0.0 101939
19:00−6wsw5860100 0.0 1019144
22:00−8w3468100 0.0 102160
13 december, mon
mon1301:00−9w347080 0.0 102377
04:00−11w347396 0.0 102582
07:00−12w3769100 0.0 1027193
10:00−12w2566100 0.0 1028221
13:00−11w3555100 0.1 1028455
16:00−11w2360100 0.1 1028492
19:00−12wsw3359100 0.1 1029418
22:00−13wsw2365100 0.1 1028319